Meacham, OR

10:33 PM PST on December 15, 2017 (GMT -0800)
Meacham

Weather History for KMEH - November, 2012

Change the Weather History Date:

Monday, November 5, 2012

  Actual Average Record
Temperature  
Mean Temperature 48 °F -  
Max Temperature 64 °F 45 °F 66 °F (1997)
Min Temperature 33 °F 25 °F -2 °F (2003)
Degree Days  
Heating Degree Days 16    
Moisture  
Dew Point 40 °F    
Average Humidity 84    
Maximum Humidity 97    
Minimum Humidity 50    
Precipitation  
Precipitation 0.00 in - - ()
Sea Level Pressure  
Sea Level Pressure 30.34 in    
Wind  
Wind Speed 0 mph (North)    
Max Wind Speed 0 mph    
Max Gust Speed -    
Visibility 10 miles    
Events      
Averages and records for this station are not official NWS values.
T = Trace of Precipitation, MM = Missing Value Source: NWS Daily Summary

Daily Weather History Graph

Daily Weather History Graph

Search for Another Location

Airport or City:

Trip Planner

Search our weather history database for the weather conditions in past years. The results will help you decide how hot, cold, wet, or windy it might be!

Date:

Astronomy

Nov. 05, 2012 Rise Set
Actual Time 6:39 AM PST 4:34 PM PST
Civil Twilight 6:08 AM PST 5:05 PM PST
Nautical Twilight 5:32 AM PST 5:40 PM PST
Astronomical Twilight 4:58 AM PST 6:15 PM PST
Moon 10:17 PM PST (11/5) 12:02 PM PST (11/5)
Length of Visible Light 10h 57m
Length of Day
9h 54m
Waning Gibbous, 62% of the Moon is Illuminated
Nov 5
Waning Gibbous
Nov 6
Last Quarter
Nov 13
New
Nov 20
First Quarter
Nov 28
Full

Hourly Weather History & Observations

Time (PST) Temp. Dew Point Humidity Pressure Visibility Wind Dir Wind Speed Gust Speed Precip Events Conditions
12:56 AM 37.0 °F 35.1 °F 93% 30.38 in 9.0 mi Calm Calm - N/A   Clear
1:56 AM 36.0 °F 35.1 °F 97% 30.38 in 9.0 mi Calm Calm - N/A   Clear
2:56 AM 35.1 °F 34.0 °F 96% 30.38 in 10.0 mi Calm Calm - N/A   Clear
3:56 AM 34.0 °F 33.1 °F 96% 30.35 in 10.0 mi Calm Calm - N/A   Clear
4:56 AM 34.0 °F 33.1 °F 96% 30.36 in 10.0 mi Calm Calm - N/A   Clear
5:56 AM 33.1 °F 32.0 °F 96% 30.37 in 10.0 mi Calm Calm - N/A   Clear
6:56 AM 34.0 °F 33.1 °F 96% 30.38 in 9.0 mi Calm Calm - N/A   Clear
7:56 AM 37.0 °F 35.1 °F 93% 30.40 in 10.0 mi Calm Calm - N/A   Partly Cloudy
8:56 AM 46.0 °F 43.0 °F 89% 30.38 in 10.0 mi Calm Calm - N/A   Partly Cloudy
9:56 AM 54.0 °F 48.9 °F 83% 30.36 in 10.0 mi Calm Calm - N/A   Overcast
10:56 AM 57.0 °F 48.9 °F 74% 30.37 in 10.0 mi Calm Calm - N/A   Overcast
11:56 AM 63.0 °F 46.0 °F 54% 30.33 in 10.0 mi Calm Calm - N/A   Mostly Cloudy
12:56 PM 64.0 °F 45.0 °F 50% 30.32 in 10.0 mi Calm Calm - N/A   Mostly Cloudy
1:56 PM 63.0 °F 46.9 °F 56% 30.32 in 10.0 mi Calm Calm - N/A   Clear
2:56 PM 62.1 °F 46.9 °F 58% 30.31 in 10.0 mi Calm Calm - N/A   Clear
3:56 PM 57.9 °F 48.0 °F 70% 30.33 in 10.0 mi Calm Calm - N/A   Clear
4:56 PM 52.0 °F 48.0 °F 86% 30.33 in 10.0 mi Calm Calm - N/A   Clear
5:56 PM 48.0 °F 45.0 °F 89% 30.33 in 10.0 mi Calm Calm - N/A   Clear
6:56 PM 45.0 °F 43.0 °F 93% 30.33 in 10.0 mi Calm Calm - N/A   Clear
7:56 PM 42.1 °F 39.9 °F 92% 30.31 in 10.0 mi Calm Calm - N/A   Clear
8:56 PM 39.9 °F 37.9 °F 93% 30.30 in 10.0 mi Calm Calm - N/A   Clear
9:56 PM 37.9 °F 36.0 °F 93% 30.27 in 10.0 mi Calm Calm - N/A   Clear
10:56 PM 36.0 °F 34.0 °F 93% 30.25 in 10.0 mi Calm Calm - N/A   Clear
11:56 PM 35.1 °F 33.1 °F 92% 30.24 in 7.0 mi Calm Calm - N/A   Clear